Miscellaneous Local Product
Issued by NWS Hastings, NE

Home | Current Version | Previous Version | Graphics & Text | Print | Product List | Glossary On
Versions: 1 2 3 4 5 6 7 8 9 10 11 12 13 14 15 16 17 18 19 20 21 22 23 24 25 26 27 28 29 30 31 32 33 34 35 36 37 38 39 40 41 42 43 44 45 46 47 48 49 50
052
AXUS43 KGID 270502
MISGRI

GID CWA HOURLY WEATHER ROUNDUP
NATIONAL WEATHER SERVICE HASTINGS NE
1200 AM CDT TUE SEP 27 2016

NOTE: "FAIR" INDICATES FEW OR NO CLOUDS BELOW 12,000 FEET WITH NO
SIGNIFICANT WEATHER AND/OR OBSTRUCTIONS TO VISIBILITY.

...SOUTH CENTRAL NEBRASKA...

CITY           SKY/WX    TMP DP  RH WIND       PRES   REMARKS
GRAND ISLAND   CLEAR     51  44  77 W3        30.13F
HASTINGS       CLEAR     55  44  66 SW3       30.14F
KEARNEY        CLEAR     55  43  62 CALM      30.14F
ORD            CLEAR     47  41  80 CALM      30.11F
YORK           CLEAR     50  46  87 W6        30.12S
AURORA         CLEAR     52  47  83 CALM      30.12F
LEXINGTON      CLEAR     49  43  80 CALM      30.17F
HOLDREGE       CLEAR     49  43  79 CALM      30.16S
HEBRON         CLEAR     50  46  85 CALM      30.13S

...NEBRASKA PANHANDLE...

CITY           SKY/WX    TMP DP  RH WIND       PRES   REMARKS
CHADRON        CLEAR     48  42  80 SW6       30.21F
ALLIANCE       CLEAR     46  41  82 NW6       30.23F
SCOTTSBLUFF    CLEAR     52  44  74 CALM      30.25F
SIDNEY         CLEAR     47  40  76 W7        30.28F

...WESTERN AND NORTH CENTRAL NEBRASKA...

CITY           SKY/WX    TMP DP  RH WIND       PRES   REMARKS
VALENTINE      CLEAR     52  38  58 NW8       30.15F
AINSWORTH      CLEAR     50  41  72 W6        30.15S
ONEILL         CLEAR     52  42  70 W6        30.12S
BROKEN BOW     CLEAR     42  39  89 CALM      30.15S
IMPERIAL       CLEAR     54  42  64 NW5       30.22S
NORTH PLATTE   CLEAR     45  41  86 NW3       30.19S
MCCOOK         CLEAR     50  45  83 W5        30.17F HAZE

...EASTERN NEBRASKA...

CITY           SKY/WX    TMP DP  RH WIND       PRES   REMARKS
NORFOLK        CLEAR     50  42  74 W5        30.09S
SO SIOUX CITY  CLEAR     53  44  71 NW3       30.05F
TEKAMAH        CLEAR     49  44  83 SW3       30.05F
COLUMBUS       CLEAR    N/A N/A N/A NW5       30.09F
ALBION         CLEAR     47  44  89 CALM      30.11S
OMAHA EPPLEY   CLEAR     55  48  77 SE6       30.07S
OFFUTT AFB     CLEAR     53  50  87 MISG      30.06F
MILLARD        CLEAR     54  49  85 CALM      30.07S
LINCOLN        CLEAR     56  47  71 CALM      30.11S
NEBRASKA CITY  CLEAR     56  38  49 W7        30.09S
BEATRICE       CLEAR     55  46  72 CALM      30.11F
FALLS CITY     CLEAR     55  48  77 W5        30.09R

...NORTHERN KANSAS...

CITY           SKY/WX    TMP DP  RH WIND       PRES   REMARKS
GOODLAND       CLEAR     50  40  68 W3        30.24S
HILL CITY      CLEAR     50  46  86 NW3       30.16F
NORTON         CLEAR     50  37  62 W5        30.15F
PHILLIPSBURG   CLEAR     54  46  76 NW5       30.15S
SMITH CENTER   CLEAR     59  43  55 CALM      30.15F
HAYS           CLEAR     55  37  50 CALM      30.16S
RUSSELL        CLEAR     57  44  62 S10       30.14F
CONCORDIA      CLEAR     61  42  49 SW9       30.12F
SALINA         CLEAR     57  48  72 SW9       30.14F
TOPEKA         CLEAR     55  50  83 SW3       30.12S



USA.gov is the U.S. government's official web portal to all federal, state and local government web resources and services.